This is the latest recevied weather packets stored in our database for station/object DB0GIS-11. If no packets are shown the sender has not sent any weather packets the latest 10 day(s).
| Time | Temp. | Humidity | Pressure | Rain* | Wind** | Luminosity | Snow |
|---|---|---|---|---|---|---|---|
| 1777295851 | 17.22° C | 39% | 1018.6 hPa | 0 mm | - | - | - |
| 1777295276 | 17.78° C | 40% | 1018.7 hPa | 0 mm | - | - | - |
| 1777293451 | 17.78° C | 41% | 1018.8 hPa | 0 mm | - | - | - |
| 1777292878 | 17.78° C | 43% | 1018.8 hPa | 0 mm | - | - | - |
| 1777291055 | 17.22° C | 43% | 1019.1 hPa | 0 mm | - | - | - |
| 1777289252 | 17.22° C | 46% | 1019.5 hPa | 0 mm | - | - | - |
| 1777288045 | 17.22° C | 47% | 1019.6 hPa | 0 mm | - | - | - |
| 1777285657 | 16.11° C | 49% | 1019.9 hPa | 0 mm | - | - | - |
| 1777282668 | 15.56° C | 50% | 1020.1 hPa | 0 mm | - | - | - |
| 1777282049 | 15.56° C | 53% | 1020.1 hPa | 0 mm | - | - | - |
| 1777277256 | 11.67° C | 63% | 1020.6 hPa | 0 mm | - | - | - |
| 1777276650 | 11.67° C | 63% | 1020.7 hPa | 0 mm | - | - | - |
| 1777273070 | 9.44° C | 65% | 1020.8 hPa | 0 mm | - | - | - |
| 1777271271 | 7.78° C | 62% | 1020.7 hPa | 0 mm | - | - | - |
| 1777268250 | 5.56° C | 61% | 1020.8 hPa | 0 mm | - | - | - |
| 1777267653 | 5° C | 58% | 1020.5 hPa | 0 mm | - | - | - |
| 1777258061 | 4.44° C | 66% | 1020.1 hPa | 0 mm | - | - | - |
| 1777257458 | 4.44° C | 66% | 1020 hPa | 0 mm | - | - | - |
| 1777255689 | 5° C | 65% | 1019.8 hPa | 0 mm | - | - | - |
| 1777254455 | 5.56° C | 64% | 1020.1 hPa | 0 mm | - | - | - |
| 1777252653 | 5.56° C | 63% | 1020.1 hPa | 0 mm | - | - | - |
| 1777250252 | 6.67° C | 62% | 1020.1 hPa | 0 mm | - | - | - |
| 1777246052 | 7.22° C | 59% | 1020.4 hPa | 0 mm | - | - | - |
| 1777244851 | 7.78° C | 58% | 1020.1 hPa | 0 mm | - | - | - |
| 1777244266 | 7.78° C | 58% | 1020.2 hPa | 0 mm | - | - | - |
* Rain latest hour (hover to see other rain measurements)
** Current wind speed in m/s (hover to see current wind gust speed)